AirNav   Get $300 off a Bose A20 Aviation Headset
 
 352 users online  

KAIV George Downer Airport
Aliceville, Alabama, USA

GOING TO ALICEVILLE?


FAA INFORMATION EFFECTIVE 12 SEPTEMBER 2019

Location

FAA Identifier: AIV
Lat/Long: 33-06-24.2800N 088-11-49.8300W
33-06.404667N 088-11.830500W
33.1067444,-88.1971750
(estimated)
Elevation: 150 ft. / 45.7 m (surveyed)
Variation: 02W (2015)
From city: 2 miles SW of ALICEVILLE, AL
Time zone: UTC -5 (UTC -6 during Standard Time)
Zip code: 35442

Airport Operations

Airport use: Open to the public
Activation date: 10/1961
Control tower: no
ARTCC: MEMPHIS CENTER
FSS: ANNISTON FLIGHT SERVICE STATION
NOTAMs facility: ANB (NOTAM-D service available)
Attendance: UNATNDD
Wind indicator: lighted
Segmented circle: no
Lights: ACTVT MIRL & REILS RY 06/24 - CTAF.
Beacon: white-green (lighted land airport)
Operates sunset to sunrise.

Airport Communications

CTAF/UNICOM: 122.8
MEMPHIS ARTCC APPROACH: 135.6
MEMPHIS ARTCC DEPARTURE: 135.6
  • APCH/DEP SVC PRVDD BY MEMPHIS ARTCC ON FREQS 127.1/269.4 (COLUMBUS RCAG) WHEN COLUMBUS APCH CTL CLSD.

Nearby radio navigation aids

VOR radial/distance  VOR name  Freq  Var
IGBr141/27.7BIGBEE VORTAC116.2004E
CBMr159/34.3CALEDONIA VORTAC115.2000E
LDKr252/34.4CRIMSON VORTAC117.8003E

Airport Services

Fuel available: 100LL
Parking: tiedowns
Airframe service: NONE
Powerplant service: NONE
Bottled oxygen: NONE
Bulk oxygen: NONE

Runway Information

Runway 6/24

Dimensions: 5001 x 80 ft. / 1524 x 24 m
Surface: asphalt, in good condition
Runway edge lights: medium intensity
RUNWAY 6  RUNWAY 24
Latitude: 33-06.208833N33-06.600500N
Longitude: 088-12.261667W088-11.399333W
Elevation: 142.8 ft.149.8 ft.
Traffic pattern: leftleft
Runway heading: 064 magnetic, 062 true244 magnetic, 242 true
Markings: nonprecision, in good conditionnonprecision, in good condition
Runway end identifier lights: yesyes
Touchdown point: yes, no lightsyes, no lights

Airport Ownership and Management from official FAA records

Ownership: Publicly-owned
Owner: CITY OF ALICEVILLE
215 FIRST ST NE
ALICEVILLE, AL 35442
Phone 205-373-6611
ALTERNATE PHONE NUMBER 205-315-1057.
Manager: CITY OF ALICEVILLE
11135 HWY 17
ALICEVILLE, AL 35442
Phone 205-373-0446

Airport Operational Statistics

Aircraft based on the field: 6
Single engine airplanes: 6
    
Aircraft operations: avg 103/week *
100% transient general aviation
* for 12-month period ending 01 October 2019

Additional Remarks

TWY LGTS FOR TWY TURNOFF ONLY.
FOR CD CTC MEMPHIS ARTCC AT 901-368-8453.

Instrument Procedures

NOTE: All procedures below are presented as PDF files. If you need a reader for these files, you should download the free Adobe Reader.

NOT FOR NAVIGATION. Please procure official charts for flight.
FAA instrument procedures published for use from 12 September 2019 at 0901Z to 10 October 2019 at 0900Z.

 
IAPs - Instrument Approach Procedures
RNAV (GPS) RWY 06   download (181KB)
RNAV (GPS) RWY 24   download (177KB)
NOTE: Special Take-Off Minimums/Departure Procedures apply   download (250KB)

Other nearby airports with instrument procedures:

3M8 - North Pickens Airport (19 nm NE)
KUBS - Columbus-Lowndes County Airport (23 nm NW)
KGTR - Golden Triangle Regional Airport (28 nm NW)
KTCL - Tuscaloosa Regional Airport (30 nm E)
M51 - Oktibbeha Airport (34 nm NW)
 
Loc | Ops | Rwys | IFR | FBO | Links
Com | Nav | Svcs | Stats | Notes
Area around KAIV (George Downer Airport)
 
Road maps at: MapQuest Bing Google
 
Aerial photo
WARNING: Photo may not be current or correct
Aerial photo of KAIV (George Downer Airport)
Do you have a better or more recent aerial photo of George Downer Airport that you would like to share? If so, please send us your photo.

 
Sectional chart

 
Airport distance calculator
Flying to George Downer Airport? Find the distance to fly.

From to KAIV

Sunrise and sunset
Times for 23-Sep-2019
 Local
(UTC-5)
 Zulu
(UTC)
Morning civil twilight06:1811:18
Sunrise06:4311:43
Sunset18:4823:48
Evening civil twilight19:1200:12

Current date and time
Zulu (UTC)  23-Sep-2019 10:13:40
Local (UTC-5)  23-Sep-2019 05:13:40
 
METAR
KGTR 
28nm NW 
230956Z AUTO 00000KT 10SM CLR 20/17 A3007 RMK AO2 SLP188 T02000167
KTCL 
30nm E 
230953Z AUTO 00000KT 3SM BR CLR 17/16 A3008 RMK AO2 SLP182 T01720161
KCBM 
34nm N 
230656Z AUTO 00000KT 10SM CLR 18/16 A3007 RMK AO2 SLP184 T01800161
KSTF 
38nm NW 
230955Z AUTO 00000KT 17/16 A3008 RMK AO2 PWINO
KNMM 
39nm SW 
230956Z AUTO 00000KT 10SM CLR 18/16 A3008 RMK AO2 SLP192 T01830156
KDYA 
40nm S 
230955Z AUTO 00000KT 10SM CLR 17/16 A3007 RMK AO2 T01650157
KM40 
48nm N 
230955Z AUTO 00000KT 10SM BKN055 16/07 A3008 RMK AO2
TAF
KGTR 
28nm NW 
230520Z 2306/2406 16005KT P6SM SKC FM231600 26006KT P6SM SCT060
KTCL 
30nm E 
230520Z 2306/2406 00000KT P6SM SKC FM231500 25006KT P6SM FEW050 FM240300 28005KT P6SM BKN040
KCBM 
34nm N 
221500Z 2215/2321 VRB06KT 9999 FEW050 QNH2995INS TX30/2221Z TN15/2310Z
NOTAMs
Click for the latest NOTAMs
NOTAMs are issued by the DoD/FAA and will open in a separate window not controlled by AirNav.

 

 
 

FBO, Fuel Providers, and Aircraft Ground Support

  
 Business Name 
 
 Contact 
 
 Services / Description 
 
Fuel Prices
 
Comments
  
City of Aliceville 205-373-6611
no information available

If you are affiliated with City of Aliceville and would like to show here your services, contact info, web link, logo, and more, click here
100LL
SS $4.25 
 Updated 29-Mar-2019
 
   write
SS=Self service
Update Fuel Prices
 

Would you like to see your business listed on this page?

 If your business provides an interesting product or service to pilots, flight crews, aircraft, or users of the George Downer Airport, you should consider listing it here.  To start the listing process, click on the button below
 
Add a business
 

Other Pages about George Downer Airport

Update a link
 
Copyright © AirNav, LLC. All rights reserved. Privacy Policy  Contact